• Processing (Info)

  • MPEC 2001-F13 : 2001 FZ

    The following Minor Planet Electronic Circular may be linked-to from your own Web pages, but must not otherwise be redistributed electronically.

    A form allowing access to any MPEC is at the bottom of this page.


    Read MPEC 2001-F12 Read MPEC 2001-F14


    M.P.E.C. 2001-F13                                Issued 2001 Mar. 19, 19:22 UT
    
         The Minor Planet Electronic Circulars contain information on unusual
             minor planets and routine data on comets.  They are published
       on behalf of Commission 20 of the International Astronomical Union by the
              Minor Planet Center, Smithsonian Astrophysical Observatory,
                              Cambridge, MA 02138, U.S.A.
    
                 Prepared using the Tamkin Foundation Computer Network
    
                                  MPC@CFA.HARVARD.EDU
              URL http://cfa-www.harvard.edu/iau/mpc.html  ISSN 1523-6714
    
                                        2001 FZ
    
    Observations:
         K01F00Z* C2001 03 16.31273 13 38 54.51 +08 30 58.8          18.6        704
         K01F00Z  C2001 03 16.32569 13 38 59.86 +08 31 28.6          19.5        704
         K01F00Z  C2001 03 16.33838 13 39 05.08 +08 31 55.2          19.3        704
         K01F00Z  C2001 03 16.35186 13 39 10.61 +08 32 24.7          19.4        704
         K01F00Z  C2001 03 16.36455 13 39 15.80 +08 32 51.9          19.3        704
         K01F00Z  C2001 03 16.98334 13 43 46.92 +08 55 17.9          17.9 R      046
         K01F00Z  C2001 03 16.98449 13 43 47.43 +08 55 20.4                      046
         K01F00Z  C2001 03 16.98626 13 43 48.19 +08 55 24.3                      046
         K01F00Z  C2001 03 16.98690 13 43 48.47 +08 55 25.9                      046
         K01F00Z  C2001 03 16.98757 13 43 48.75 +08 55 27.4                      046
         K01F00Z  C2001 03 16.98828 13 43 49.07 +08 55 28.4                      046
         K01F00Z  C2001 03 16.98894 13 43 49.30 +08 55 29.8          18.0 R      046
         K01F00Z  C2001 03 17.02896 13 44 06.39 +08 56 59.9                      118
         K01F00Z  C2001 03 17.03009 13 44 06.86 +08 57 02.6          18.2 R      118
         K01F00Z  C2001 03 17.03343 13 44 08.22 +08 57 09.9                      118
         K01F00Z  C2001 03 17.25908 13 45 50.61 +09 05 39.4          19.0 R      649
         K01F00Z  C2001 03 17.26163 13 45 51.79 +09 05 44.7          19.0 R      649
         K01F00Z  C2001 03 17.26406 13 45 52.74 +09 05 49.0          18.8 R      649
         K01F00Z  C2001 03 17.26638 13 45 53.61 +09 05 56.2          19.1 R      649
         K01F00Z  C2001 03 17.26883 13 45 54.81 +09 06 01.1          19.1 R      649
         K01F00Z 4C2001 03 17.45963 13 47 18.55 +09 13 15.2                      673
         K01F00Z 4C2001 03 17.46190 13 47 19.56 +09 13 20.4                      673
         K01F00Z  C2001 03 18.22917 13 53 13.99 +09 43 16.1          19.2 V      859
         K01F00Z  C2001 03 18.23225 13 53 15.37 +09 43 23.1          19.4 V      859
         K01F00Z  C2001 03 18.23529 13 53 16.73 +09 43 31.2          19.8 V      859
         K01F00Z  C2001 03 18.23829 13 53 18.12 +09 43 37.6          19.0 V      859
         K01F00Z  C2001 03 18.24132 13 53 19.59 +09 43 44.8          19.3 V      859
         K01F00Z 4C2001 03 18.26720 13 53 34.79 +09 43 49.7                      673
         K01F00Z 4C2001 03 18.27624 13 53 38.93 +09 44 12.3                      673
         K01F00Z  C2001 03 18.30547 13 53 51.88 +09 45 18.4          18.6        704
         K01F00Z  C2001 03 18.31873 13 53 57.88 +09 45 51.0          18.6        704
         K01F00Z  C2001 03 18.32428 13 54 00.37 +09 46 04.0          19.3        704
         K01F00Z  C2001 03 18.33200 13 54 03.92 +09 46 21.0          18.6        704
         K01F00Z  C2001 03 18.33797 13 54 06.63 +09 46 35.4          18.9        704
         K01F00Z  C2001 03 18.34523 13 54 09.89 +09 46 52.8          18.6        704
         K01F00Z  C2001 03 18.35146 13 54 12.68 +09 47 05.9          18.9        704
         K01F00Z  C2001 03 18.35858 13 54 15.94 +09 47 22.9          18.3        704
         K01F00Z  C2001 03 18.36544 13 54 19.05 +09 47 39.0          19.1        704
         K01F00Z  C2001 03 18.54825 13 55 47.59 +09 55 40.5          19.1 R      422
         K01F00Z  C2001 03 18.54997 13 55 48.37 +09 55 44.0          18.8 R      422
         K01F00Z  C2001 03 18.55152 13 55 49.04 +09 55 47.4          19.0 R      422
         K01F00Z  C2001 03 18.55328 13 55 49.84 +09 55 50.9          18.9 R      422
         K01F00Z  C2001 03 19.34301 14 02 11.00 +10 25 31.9          18.5 R      918
         K01F00Z  C2001 03 19.34795 14 02 13.34 +10 25 43.5          19.1 R      918
         K01F00Z  C2001 03 19.34919 14 02 13.92 +10 25 46.7          18.9 R      918
    
    Observer details:
    046 Klet.  Observers J. Ticha, M. Tichy.  0.57-m f/5.2 reflector + CCD.
    118 Modra.  Observers A. Galad, J. Toth.  0.6-m f/5.5 reflector + CCD.
    422 Loomberah.  Observer G. J. Garradd.  0.45-m f/5.4 reflector + CCD.
    649 Powell Observatory, Louisburg.  Observers R. Fredrick, D. Young,
        K. Smalley.  0.75-m Newtonian + CCD.
    673 Table Mountain Observatory, Wrightwood.  Observers D. Esqueda, A. Esqueda,
        T. Ha.  Measurer M. Hicks.  0.6-m reflector + CCD.
    704 Lincoln Laboratory ETS, New Mexico.  Observers M. Blythe, F. Shelly,
        M. Bezpalko, R. Huber, L. Manguso, S. Adams.  Measurers J. Stuart,
        R. Sayer, J. B. Evans, H. Viggh.  1.0-m f/2.15 reflector + CCD.
    859 Wykrota Observatory-CEAMIG.  Observers C. Jacques, A. Campos, L. Duczmal,
        E. Pimentel.  0.3-m f/3.3 Schmidt-Cassegrain + CCD.
    918 Badlands Observatory, Quinn.  Observer R. Dyvig.  0.66-m f/4.8 reflector
        + CCD.
    
    Orbital elements:
    2001 FZ
    Epoch 2001 Mar. 12.0 TT = JDT 2451980.5                 Spahr
    M 349.04621              (2000.0)            P               Q
    n   0.26451155     Peri.   60.90198     -0.76805443     +0.63881832
    a   2.4034751      Node   158.70159     -0.62200811     -0.72756531
    e   0.5670779      Incl.    7.07868     -0.15230990     -0.25011972
    P   3.73           H   21.7           G   0.15
    From 45 observations 2001 Mar. 16-19.
    
    Ephemeris:
    2001 FZ                  a,e,i = 2.40, 0.57, 7                   q = 1.0405
    Date    TT    R. A. (2000) Decl.     Delta      r     Elong.  Phase     V
    2001 03 12    13 10.98   +06 08.0    0.183    1.162   154.4    21.7    19.4
    2001 03 22    14 25.25   +12 12.8    0.142    1.113   143.0    32.6    19.1
    2001 04 01    16 09.91   +18 15.0    0.127    1.075   123.9    50.5    19.2
    2001 04 11    17 52.79   +20 14.9    0.139    1.051   106.8    66.0    19.8
    2001 04 21    19 04.74   +19 06.5    0.167    1.041    97.8    73.1    20.5
    2001 05 01    19 49.61   +17 09.5    0.200    1.046    95.6    73.4    20.9
    2001 05 11    20 17.75   +15 10.6    0.234    1.067    97.7    69.8    21.1
    2001 05 21    20 35.03   +13 13.2    0.265    1.101   102.7    63.7    21.3
    2001 05 31    20 43.98   +11 05.7    0.292    1.147   109.9    56.2    21.4
    2001 06 10    20 46.03   +08 35.8    0.318    1.202   119.1    47.6    21.4
    2001 06 20    20 42.19   +05 35.7    0.345    1.265   129.8    38.1    21.4
    2001 06 30    20 33.82   +02 05.0    0.377    1.333   141.8    28.1    21.5
    2001 07 10    20 23.11   -01 43.7    0.419    1.405   154.0    18.5    21.5
    2001 07 20    20 12.33   -05 29.9    0.475    1.479   164.4    10.6    21.6
    2001 07 30    20 03.51   -08 54.0    0.549    1.555   167.4     8.2    21.9
    
    Timothy B. Spahr             (C) Copyright 2001 MPC           M.P.E.C. 2001-F13
    

    Read MPEC 2001-F12 Read MPEC 2001-F14


    MPEC number:

    Enter an MPEC number in one of the following forms:

    • 1997-B01 (the full form)
    • J97B01 (the packed version of the full form)
    • B01 (the abbreviated form)